Location: Boiro
(42.6475°N, 8.8834°W)
Time: 02:35:04
(UTC+01:00)

Explorer 11/Cluster Stage 4 - Pass Details

Date: 08 December 2021
Orbit: 467 x 1255 km, 28.8° (Epoch: 20 January)

Event Time Altitude Azimuth Distance (km) Brightness Sun altitude
Rises 03:31:38 0° 240° (WSW) 3,195 - -57.4°
Reaches altitude 10° 03:34:24 10° 225° (SW) 2,408 - -57.0°
Maximum altitude 03:38:50 23° 175° (S) 1,879 - -56.3°
Drops below altitude 10° 03:43:59 10° 127° (SE) 2,843 - -55.4°
Exits shadow 03:46:56 - 116° (ESE) 3,732 10.3 -54.9°
Sets 03:47:34 0° 114° (ESE) 3,932 10.5 -54.8°
